This demonstration page uses our WeatherBlox Daily Observations layout. Learn more.

Left ArrowRight Arrow

47.50024, -111.30081

Hourly Observations for April 19, 2016

Temp ( °F °C ) Dew Point ( °F °C ) Humidity (%) Winds ( mph kmh ) Pressure ( in mb ) Visibility ( mi km ) Precip ( " mm )
12:53 am 00:53 Clear 38 3.3 24 -4.4 57 57 NW 6 9 30.31 1026 10 16 0.00 0.00
1:53 am 01:53 Clear 37 2.8 25 -3.9 62 62 S 3 6 30.28 1025 10 16 0.00 0.00
2:53 am 02:53 Clear 31 -0.6 24 -4.4 76 76 W 6 9 30.28 1025 10 16 0.00 0.00
3:53 am 03:53 Clear 31 -0.6 25 -3.9 79 79 SSW 8 13 30.25 1024 10 16 0.00 0.00
4:53 am 04:53 Clear 32 0 26 -3.3 79 79 SSW 10 17 30.24 1024 10 16 0.00 0.00
5:53 am 05:53 Clear 33 0.6 25 -3.9 72 72 SSW 7 11 30.22 1024 10 16 0.00 0.00
6:53 am 06:53 Sunny 33 0.6 25 -3.9 72 72 VRB 5 7 30.22 1023 10 16 0.00 0.00
7:53 am 07:53 Sunny 37 2.8 30 -1.1 76 76 WSW 5 7 30.21 1023 10 16 0.00 0.00
8:53 am 08:53 Sunny 47 8.3 31 -0.6 54 54 SSW 3 6 30.18 1022 10 16 0.00 0.00
9:53 am 09:53 Sunny 50 10 31 -0.6 48 48 S 3 6 30.17 1022 10 16 0.00 0.00
10:53 am 10:53 Sunny 56 13.3 34 1.1 44 44 S 5 7 30.13 1020 10 16 0.00 0.00
11:53 am 11:53 Sunny 61 16.1 32 0 34 34 VRB 3 6 30.11 1020 10 16 0.00 0.00
12:53 pm 12:53 Sunny 63 17.2 36 2.2 37 37 VRB 3 6 30.08 1019 10 16 0.00 0.00
1:53 pm 13:53 Sunny 66 18.9 36 2.2 33 33 SSE 7 11 30.05 1018 10 16 0.00 0.00
2:53 pm 14:53 Sunny 67 19.4 36 2.2 32 32 Calm 30.05 1018 10 16 0.00 0.00
3:53 pm 15:53 Sunny 69 20.6 36 2.2 30 30 Calm 30.03 1017 10 16 0.00 0.00
4:53 pm 16:53 Sunny 69 20.6 37 2.8 31 31 VRB 3 6 30.00 1016 10 16 0.00 0.00
5:53 pm 17:53 Sunny 69 20.6 36 2.2 30 30 SE 5 7 29.98 1015 10 16 0.00 0.00
6:53 pm 18:53 Sunny 68 20 38 3.3 33 33 SE 6 9 29.97 1015 10 16 0.00 0.00
7:53 pm 19:53 Sunny 62 16.7 42 5.6 48 48 E 7 11 29.97 1015 10 16 0.00 0.00
8:53 pm 20:53 Clear 55 12.8 42 5.6 62 62 ESE 7 11 29.97 1015 10 16 0.00 0.00
9:53 pm 21:53 Clear 53 11.7 42 5.6 66 66 E 7 11 29.96 1015 10 16 0.00 0.00
10:53 pm 22:53 Clear 53 11.7 42 5.6 66 66 ESE 10 17 29.95 1014 10 16 0.00 0.00
11:53 pm 23:53 Clear 47 8.3 40 4.4 77 77 S 5 7 29.94 1014 10 16 0.00 0.00

Powered by AerisWeather